KE8ZLU Weather Reports


time (UTC)temp
C
wind
direction
speed
KPH
gust
KPH
rain 1hr
cm
rain 24hr
cm
rain mn
cm
humidity
%
barometer
mb
20260507085430 1 345 0.0 0.0 0.00 0.00 0.00 90 1014.2
20260507084927 1 347 0.0 0.0 0.00 0.00 0.00 89 1014.2
20260507084424 1 350 0.0 0.0 0.00 0.00 0.00 88 1014.2
20260507083921 1 351 0.0 0.0 0.00 0.00 0.00 88 1014.2
20260507083417 1 348 0.0 0.0 0.00 0.00 0.00 87 1014.1
20260507082913 1 347 0.0 0.0 0.00 0.00 0.00 87 1014.2
20260507082409 2 347 0.0 0.0 0.00 0.00 0.00 86 1014.1
20260507081907 2 349 0.0 0.0 0.00 0.00 0.00 85 1014.1
20260507081403 2 349 0.0 0.0 0.00 0.00 0.00 84 1014.3
20260507080859 2 347 0.0 0.0 0.00 0.00 0.00 83 1014.2
20260507080355 2 344 0.0 0.0 0.00 0.00 0.00 83 1014.3
20260507075851 2 348 0.0 0.0 0.00 0.00 0.00 81 1014.3
20260507075347 3 347 0.0 0.0 0.00 0.00 0.00 82 1014.1
20260507074844 3 349 0.0 0.0 0.00 0.00 0.00 83 1014.2
20260507074341 3 347 0.0 0.0 0.00 0.00 0.00 80 1014.0
20260507073838 3 345 0.0 0.0 0.00 0.00 0.00 78 1014.2
20260507073335 3 347 0.0 0.0 0.00 0.00 0.00 79 1014.1
20260507072832 4 347 0.0 0.0 0.00 0.00 0.00 78 1014.2
20260507072330 4 343 0.0 0.0 0.00 0.00 0.00 77 1014.0
20260507071827 4 341 0.0 0.0 0.00 0.00 0.00 75 1014.2
20260507071324 4 319 0.0 0.0 0.00 0.00 0.00 75 1014.3
20260507070820 3 325 0.0 0.0 0.00 0.00 0.00 76 1014.1
20260507070318 3 345 0.0 0.0 0.00 0.00 0.00 78 1014.3
20260507065814 3 306 0.0 1.6 0.00 0.00 0.00 78 1014.3
20260507065311 3 340 0.0 0.0 0.00 0.00 0.00 78 1014.4
20260507064808 3 353 0.0 0.0 0.00 0.00 0.00 77 1014.3
20260507064307 4 348 0.0 0.0 0.00 0.00 0.00 77 1014.2
20260507063804 5 345 0.0 0.0 0.00 0.00 0.00 75 1014.3
20260507063301 5 353 0.0 0.0 0.00 0.00 0.00 71 1014.5
20260507062757 5 349 0.0 0.0 0.00 0.00 0.00 71 1014.4
20260507062255 5 347 0.0 0.0 0.00 0.00 0.00 71 1014.3
20260507061753 5 339 0.0 0.0 0.00 0.00 0.00 69 1014.4
20260507061250 5 339 0.0 0.0 0.00 0.00 0.00 69 1014.5
20260507060748 5 339 0.0 0.0 0.00 0.00 0.00 69 1014.7
20260507060244 5 329 0.0 0.0 0.00 0.00 0.00 70 1014.4
20260507055741 5 343 0.0 0.0 0.00 0.00 0.00 70 1014.5
20260507055236 5 342 0.0 0.0 0.00 0.00 0.00 69 1014.6
20260507054733 6 311 1.6 1.6 0.00 0.00 0.00 64 1014.6
20260507054230 6 319 0.0 1.6 0.00 0.00 0.00 65 1014.6
20260507053727 6 314 1.6 1.6 0.00 0.00 0.00 64 1014.6
20260507053225 6 327 0.0 0.0 0.00 0.00 0.00 64 1014.7
20260507052724 6 332 0.0 0.0 0.00 0.00 0.00 64 1014.7
20260507052219 6 321 1.6 3.2 0.00 0.00 0.00 62 1014.8
20260507051718 7 303 1.6 1.6 0.00 0.00 0.00 61 1014.8
20260507051214 7 307 1.6 3.2 0.00 0.00 0.00 61 1014.7
20260507050711 7 310 1.6 3.2 0.00 0.00 0.00 61 1014.6
20260507050208 7 311 1.6 3.2 0.00 0.00 0.00 61 1014.7
20260507045704 7 326 1.6 1.6 0.00 0.00 0.00 63 1014.7
20260507045201 7 313 1.6 4.8 0.00 0.00 0.00 61 1014.6
20260507044658 7 303 3.2 3.2 0.00 0.00 0.00 62 1014.6
20260507044154 7 297 1.6 3.2 0.00 0.00 0.00 62 1014.8
20260507043651 7 301 1.6 1.6 0.00 0.00 0.00 61 1014.6
20260507043148 7 301 1.6 1.6 0.00 0.00 0.00 60 1014.6
20260507042644 7 292 1.6 1.6 0.00 0.00 0.00 60 1014.7
20260507042139 7 284 1.6 1.6 0.00 0.00 0.00 60 1014.6
20260507041637 7 300 1.6 3.2 0.00 0.00 0.00 61 1014.5
20260507041133 7 298 3.2 3.2 0.00 0.00 0.00 60 1014.5
20260507040630 7 303 1.6 4.8 0.00 0.00 0.00 61 1014.5
20260507040127 7 285 3.2 3.2 0.00 0.00 0.00 60 1014.6
20260507035622 7 289 3.2 3.2 0.00 0.00 0.00 60 1014.5
20260507035118 7 294 3.2 3.2 0.00 0.00 0.00 60 1014.5
20260507034615 7 308 1.6 3.2 0.00 0.00 0.00 60 1014.6
20260507034113 8 310 3.2 3.2 0.00 0.00 0.00 59 1014.6
20260507033611 8 326 1.6 3.2 0.00 0.00 0.00 59 1014.7
20260507033108 8 319 1.6 1.6 0.00 0.00 0.00 57 1014.6
20260507032605 8 324 1.6 3.2 0.00 0.00 0.00 56 1014.7
20260507032101 8 283 3.2 3.2 0.00 0.00 0.00 56 1014.8
20260507031558 8 283 1.6 3.2 0.00 0.00 0.00 56 1014.9
20260507031055 8 288 3.2 3.2 0.00 0.00 0.00 55 1014.9
20260507030551 8 285 4.8 4.8 0.00 0.00 0.00 54 1014.9
20260507030049 8 289 1.6 1.6 0.00 0.00 0.00 55 1014.9
20260507025546 8 297 1.6 3.2 0.00 0.00 0.00 55 1014.9
20260507025044 8 287 3.2 4.8 0.00 0.00 0.00 54 1014.8
20260507024542 8 310 3.2 6.4 0.00 0.00 0.00 53 1014.9
20260507024038 8 290 4.8 4.8 0.00 0.00 0.00 53 1014.8
20260507023534 8 298 1.6 4.8 0.00 0.00 0.00 54 1014.8
20260507023032 8 297 3.2 4.8 0.00 0.00 0.00 53 1014.9
20260507022528 8 307 0.0 3.2 0.00 0.00 0.00 54 1014.8
20260507022029 8 293 1.6 4.8 0.00 0.00 0.00 53 1014.8
20260507021525 8 307 1.6 4.8 0.00 0.00 0.00 55 1015.0
20260507021022 8 309 1.6 3.2 0.00 0.00 0.00 55 1014.6
20260507020519 8 299 1.6 1.6 0.00 0.00 0.00 55 1014.6
20260507020016 8 311 1.6 3.2 0.00 0.00 0.00 54 1014.6
20260507015514 8 286 1.6 1.6 0.00 0.00 0.00 54 1014.5
20260507015011 8 295 1.6 4.8 0.00 0.00 0.00 54 1014.7
20260507014508 8 302 0.0 1.6 0.00 0.00 0.00 54 1014.6
20260507014003 8 290 1.6 3.2 0.00 0.00 0.00 53 1014.6
20260507013500 8 325 0.0 0.0 0.00 0.00 0.00 53 1014.5
20260507012957 8 324 0.0 1.6 0.00 0.00 0.00 53 1014.4
20260507012454 8 331 0.0 1.6 0.00 0.00 0.00 52 1014.5
20260507011951 8 292 0.0 1.6 0.00 0.00 0.00 52 1014.3
20260507011448 9 296 1.6 3.2 0.00 0.00 0.00 51 1014.2
20260507010943 9 290 4.8 4.8 0.00 0.00 0.00 50 1014.4
20260507010438 9 289 3.2 6.4 0.00 0.00 0.00 49 1014.4
20260507005935 9 296 3.2 3.2 0.00 0.00 0.00 49 1014.5
20260507005433 9 268 3.2 4.8 0.00 0.00 0.00 48 1014.3
20260507004930 9 255 3.2 4.8 0.00 0.00 0.00 48 1014.4
20260507004426 9 301 1.6 3.2 0.00 0.00 0.00 49 1014.4
20260507003923 9 303 1.6 3.2 0.00 0.00 0.00 50 1014.2
20260507003418 9 308 3.2 3.2 0.00 0.00 0.00 50 1014.5
20260507002914 9 291 1.6 3.2 0.00 0.00 0.00 50 1014.3
20260507002410 10 270 6.4 9.7 0.00 0.00 0.00 46 1014.2
20260507001908 10 297 6.4 6.4 0.00 0.00 0.00 45 1014.3
20260507001404 10 295 4.8 9.7 0.00 0.00 0.00 47 1014.2
20260507000902 10 281 8.0 14.5 0.00 0.00 0.00 44 1014.1
20260507000357 10 302 11.3 16.1 0.00 0.00 0.00 44 1014.1
20260506235853 10 270 12.9 16.1 0.00 0.00 0.00 44 1013.9
20260506235350 10 306 6.4 12.9 0.00 0.00 0.00 46 1014.1
20260506234846 10 271 9.7 14.5 0.00 0.00 0.00 45 1014.1
20260506234344 10 258 6.4 6.4 0.00 0.00 0.00 45 1014.2
20260506233841 10 300 6.4 12.9 0.00 0.00 0.00 46 1014.1
20260506233337 10 291 9.7 12.9 0.00 0.00 0.00 44 1013.9
20260506232834 10 295 8.0 16.1 0.00 0.00 0.00 44 1013.8
20260506232330 10 301 11.3 16.1 0.00 0.00 0.00 43 1014.1
20260506231826 10 278 9.7 17.7 0.00 0.00 0.00 42 1013.9
20260506231324 10 245 16.1 22.5 0.00 0.00 0.00 42 1013.8
20260506230821 11 306 14.5 17.7 0.00 0.00 0.00 42 1013.9
20260506230318 11 288 8.0 11.3 0.00 0.00 0.00 45 1013.7
20260506225814 11 305 9.7 16.1 0.00 0.00 0.00 44 1013.7
20260506225312 10 285 11.3 12.9 0.00 0.00 0.00 44 1013.9
20260506224809 10 311 9.7 16.1 0.00 0.00 0.00 44 1013.9
20260506224306 10 273 9.7 16.1 0.00 0.00 0.00 44 1013.9
20260506223802 11 263 19.3 25.7 0.00 0.00 0.00 43 1013.8
20260506223257 11 302 16.1 20.9 0.00 0.00 0.00 45 1013.9
20260506222754 11 276 14.5 16.1 0.00 0.00 0.00 43 1013.9
20260506222250 11 307 14.5 16.1 0.00 0.00 0.00 44 1013.9
20260506221748 11 300 11.3 17.7 0.00 0.00 0.00 44 1014.0
20260506221246 11 268 17.7 17.7 0.00 0.00 0.00 43 1013.9
20260506220743 11 309 14.5 22.5 0.00 0.00 0.00 43 1013.9
20260506220238 11 299 12.9 16.1 0.00 0.00 0.00 42 1013.9
20260506215735 11 327 9.7 17.7 0.00 0.00 0.00 44 1013.9
20260506215230 11 285 16.1 22.5 0.00 0.00 0.00 43 1013.9
20260506214727 11 294 12.9 16.1 0.00 0.00 0.00 43 1013.9
20260506214224 11 288 6.4 6.4 0.00 0.00 0.00 46 1013.8
20260506213722 11 279 8.0 9.7 0.00 0.00 0.00 44 1013.8
20260506213219 11 292 11.3 16.1 0.00 0.00 0.00 44 1013.9
20260506212717 11 275 14.5 17.7 0.00 0.00 0.00 44 1013.8
20260506212212 11 286 16.1 17.7 0.00 0.00 0.00 44 1013.8
20260506211707 11 301 9.7 12.9 0.00 0.00 0.00 44 1013.6
20260506211204 11 296 12.9 20.9 0.00 0.00 0.00 43 1013.5
20260506210701 11 262 8.0 14.5 0.00 0.00 0.00 44 1013.7
20260506210158 11 338 11.3 16.1 0.00 0.00 0.00 45 1013.8
20260506205655 11 359 6.4 14.5 0.00 0.00 0.00 45 1013.6
20260506205150 11 325 14.5 16.1 0.00 0.00 0.00 43 1013.8
20260506204648 11 311 14.5 17.7 0.00 0.00 0.00 45 1013.8
20260506204144 11 319 8.0 12.9 0.00 0.00 0.00 45 1013.6
20260506203643 10 345 14.5 16.1 0.00 0.00 0.00 46 1013.6
20260506203139 11 304 6.4 11.3 0.00 0.00 0.00 46 1013.8
20260506202637 10 267 4.8 16.1 0.00 0.00 0.00 47 1013.8
20260506202133 10 289 6.4 11.3 0.00 0.00 0.00 44 1013.9
20260506201630 11 265 9.7 12.9 0.00 0.00 0.00 44 1013.9
20260506201127 11 283 6.4 11.3 0.00 0.00 0.00 46 1014.0
20260506200623 11 310 11.3 16.1 0.00 0.00 0.00 45 1013.9
20260506200120 11 297 6.4 14.5 0.00 0.00 0.00 47 1014.2
20260506195617 11 293 8.0 16.1 0.00 0.00 0.00 49 1013.9
20260506195113 11 277 6.4 12.9 0.00 0.00 0.00 47 1013.9
20260506194611 10 265 9.7 11.3 0.00 0.00 0.00 48 1014.1
20260506194107 10 284 4.8 11.3 0.00 0.00 0.00 46 1014.1
20260506193605 10 295 9.7 20.9 0.00 0.00 0.00 46 1014.2
20260506193102 11 296 12.9 20.9 0.00 0.00 0.00 46 1014.1
20260506192558 10 305 9.7 16.1 0.00 0.00 0.00 46 1014.3
20260506192054 10 272 3.2 11.3 0.00 0.00 0.00 48 1014.2
20260506191551 10 262 4.8 9.7 0.00 0.00 0.00 48 1014.3
20260506191047 10 306 4.8 6.4 0.00 0.00 0.00 47 1014.2
20260506190544 10 332 0.0 3.2 0.00 0.00 0.00 45 1014.4
20260506190041 10 264 6.4 12.9 0.00 0.00 0.00 48 1014.3
20260506185539 10 277 11.3 16.1 0.00 0.00 0.00 48 1014.2
20260506185035 11 279 6.4 11.3 0.00 0.00 0.00 47 1014.2
20260506184533 10 303 14.5 16.1 0.00 0.00 0.00 46 1014.4
20260506184030 10 336 8.0 16.1 0.00 0.00 0.00 50 1014.4
20260506183525 10 11 1.6 12.9 0.00 0.00 0.00 50 1014.4
20260506183022 10 315 6.4 6.4 0.00 0.00 0.00 47 1014.3
20260506182520 10 312 8.0 11.3 0.00 0.00 0.00 47 1014.4
20260506182017 10 301 6.4 6.4 0.00 0.00 0.00 48 1014.3
20260506181515 11 321 16.1 17.7 0.00 0.00 0.00 47 1014.2
20260506181011 10 350 6.4 14.5 0.00 0.00 0.00 47 1014.1
20260506180508 10 349 12.9 14.5 0.00 0.00 0.00 47 1014.2
20260506180005 10 302 8.0 16.1 0.00 0.00 0.00 51 1014.3
20260506175501 10 293 9.7 14.5 0.00 0.00 0.00 49 1014.3
20260506174957 10 330 3.2 9.7 0.00 0.00 0.00 50 1014.4
20260506174456 9 276 11.3 14.5 0.00 0.00 0.00 47 1014.3
20260506173952 10 329 8.0 12.9 0.00 0.00 0.00 49 1014.5
20260506173450 10 340 11.3 14.5 0.00 0.00 0.00 47 1014.4
20260506172946 10 276 9.7 17.7 0.00 0.00 0.00 46 1014.6
20260506172444 10 349 12.9 16.1 0.00 0.00 0.00 48 1014.7
20260506171940 10 319 12.9 16.1 0.00 0.00 0.00 48 1014.8
20260506171437 10 260 17.7 25.7 0.00 0.00 0.00 47 1015.1
20260506170935 10 355 4.8 6.4 0.00 0.00 0.00 48 1014.9
20260506170432 10 358 8.0 11.3 0.00 0.00 0.00 50 1014.7
20260506165930 9 40 6.4 14.5 0.00 0.00 0.00 48 1014.6
20260506165428 10 284 8.0 11.3 0.00 0.00 0.00 48 1014.7
20260506164924 10 327 3.2 11.3 0.00 0.00 0.00 48 1014.6
20260506164421 9 275 14.5 17.7 0.00 0.00 0.00 49 1014.8
20260506163920 9 326 9.7 16.1 0.00 0.00 0.00 50 1014.8
20260506163419 9 332 9.7 17.7 0.00 0.00 0.00 51 1014.6
20260506162909 9 354 8.0 11.3 0.00 0.00 0.00 52 1014.8
20260506162407 8 331 8.0 11.3 0.00 0.00 0.00 54 1014.7
20260506161904 9 325 9.7 20.9 0.00 0.00 0.00 51 1014.4
20260506161401 10 2 16.1 16.1 0.00 0.00 0.00 49 1014.7
20260506160854 9 348 9.7 20.9 0.00 0.00 0.00 49 1014.4
20260506160350 9 314 14.5 17.7 0.00 0.00 0.00 53 1014.5
20260506155848 9 351 12.9 16.1 0.00 0.00 0.00 51 1014.6
20260506155344 10 329 11.3 20.9 0.00 0.00 0.00 53 1014.8
20260506153456 8 354 1.6 11.3 0.00 0.00 0.00 57 1014.5
20260506152954 8 340 4.8 11.3 0.00 0.00 0.00 52 1014.6
20260506152450 8 9 6.4 12.9 0.00 0.00 0.00 58 1014.5
20260506151949 8 318 8.0 12.9 0.00 0.00 0.00 57 1014.6
20260506151446 8 24 9.7 12.9 0.00 0.00 0.00 60 1014.4
20260506150943 8 36 6.4 11.3 0.00 0.00 0.00 59 1014.4
20260506150439 8 4 6.4 14.5 0.00 0.00 0.00 56 1014.4
20260506145936 8 329 11.3 14.5 0.00 0.00 0.00 57 1014.5
20260506145432 8 285 6.4 6.4 0.00 0.00 0.00 57 1014.4
20260506144930 8 334 4.8 11.3 0.00 0.00 0.00 60 1014.3
20260506144426 8 308 8.0 12.9 0.00 0.00 0.00 58 1014.5
20260506143925 8 318 9.7 12.9 0.00 0.00 0.00 58 1014.3
20260506143421 8 288 4.8 9.7 0.00 0.00 0.00 55 1014.4
20260506142920 8 302 12.9 16.1 0.00 0.00 0.00 57 1014.2
20260506142418 8 336 8.0 14.5 0.00 0.00 0.00 60 1014.3
20260506141915 7 19 11.3 16.1 0.00 0.00 0.00 58 1014.1
20260506141413 7 308 17.7 17.7 0.00 0.00 0.00 60 1014.0
20260506140911 7 319 11.3 14.5 0.00 0.00 0.00 61 1013.8
20260506140408 7 342 4.8 6.4 0.00 0.00 0.00 64 1013.7
20260506135905 7 331 4.8 6.4 0.00 0.00 0.00 62 1014.0
20260506135402 7 331 4.8 6.4 0.00 0.00 0.00 62 1013.7
20260506134858 7 327 8.0 9.7 0.00 0.00 0.00 60 1013.6
20260506134354 7 327 8.0 9.7 0.00 0.00 0.00 60 1013.5
20260506133851 7 330 4.8 6.4 0.00 0.00 0.00 62 1013.6
20260506133348 7 330 4.8 6.4 0.00 0.00 0.00 62 1013.6
20260506132845 7 330 4.8 6.4 0.00 0.00 0.00 62 1013.8
20260506132342 7 341 6.4 9.7 0.00 0.00 0.00 61 1013.6
20260506131840 7 350 8.0 11.3 0.00 0.00 0.00 61 1013.6
20260506131336 7 4 11.3 12.9 0.00 0.00 0.00 62 1013.5
20260506130833 6 348 11.3 12.9 0.00 0.00 0.00 64 1013.5
20260506130329 6 348 11.3 12.9 0.00 0.00 0.00 64 1013.5
20260506125827 6 348 11.3 12.9 0.00 0.00 0.00 64 1013.4
20260506125326 6 337 6.4 6.4 0.00 0.00 0.00 68 1013.5
20260506124824 6 337 6.4 6.4 0.00 0.00 0.00 68 1013.3
20260506124320 6 337 6.4 6.4 0.00 0.00 0.00 68 1013.1
20260506123818 6 337 6.4 6.4 0.00 0.00 0.00 68 1013.1
20260506123317 6 337 6.4 6.4 0.00 0.00 0.00 68 1013.1
20260506122813 6 337 6.4 11.3 0.00 0.00 0.00 68 1013.3
20260506122310 6 317 11.3 12.9 0.00 0.00 0.00 67 1012.9
20260506121808 6 314 6.4 9.7 0.00 0.00 0.00 69 1013.0
20260506121305 6 314 6.4 9.7 0.00 0.00 0.00 69 1012.6
20260506120802 6 314 6.4 9.7 0.00 0.00 0.00 69 1012.6
20260506120300 5 320 6.4 6.4 0.00 0.00 0.00 70 1012.6
20260506115757 5 311 8.0 11.3 0.00 0.00 0.00 70 1012.8
20260506115255 5 319 8.0 9.7 0.00 0.00 0.00 70 1012.5
20260506114753 5 318 6.4 9.7 0.00 0.00 0.00 71 1012.4
20260506114250 5 296 4.8 4.8 0.00 0.00 0.00 72 1012.5
20260506113749 5 318 1.6 1.6 0.00 0.00 0.00 73 1012.4
20260506113246 5 333 6.4 6.4 0.00 0.00 0.00 73 1012.2
20260506112742 5 316 4.8 9.7 0.00 0.00 0.00 73 1012.3
20260506112240 5 336 3.2 4.8 0.00 0.00 0.00 72 1012.3
20260506111737 5 330 1.6 1.6 0.00 0.00 0.00 74 1012.0
20260506111235 4 352 0.0 1.6 0.00 0.00 0.00 75 1011.8
20260506110731 4 5 0.0 1.6 0.00 0.00 0.00 74 1011.9
20260506110229 4 5 1.6 3.2 0.00 0.00 0.00 74 1011.9
20260506105726 3 33 3.2 3.2 0.00 0.00 0.00 76 1012.0
20260506105223 3 5 0.0 0.0 0.00 0.00 0.00 76 1011.9
20260506104721 3 303 1.6 3.2 0.00 0.00 0.00 76 1011.7
20260506104218 3 299 3.2 3.2 0.00 0.00 0.00 76 1011.6
20260506103715 3 305 1.6 1.6 0.00 0.00 0.00 77 1011.6
20260506103212 3 304 1.6 1.6 0.00 0.00 0.00 77 1011.5
20260506102710 3 325 0.0 0.0 0.00 0.00 0.00 78 1011.5
20260506102208 3 316 1.6 3.2 0.00 0.00 0.00 77 1011.4
20260506101704 3 303 1.6 1.6 0.00 0.00 0.00 77 1011.4
20260506101201 3 305 1.6 1.6 0.00 0.00 0.00 78 1011.5
20260506100659 3 326 0.0 0.0 0.00 0.00 0.00 78 1011.4
20260506100157 3 318 0.0 1.6 0.00 0.00 0.00 77 1011.6
20260506095655 4 350 0.0 0.0 0.00 0.00 0.00 77 1011.4
20260506095151 4 340 0.0 0.0 0.00 0.00 0.00 74 1011.4
20260506094649 5 341 0.0 0.0 0.00 0.00 0.00 71 1011.3
20260506094147 5 304 1.6 1.6 0.00 0.00 0.00 70 1011.3
20260506093645 5 323 0.0 3.2 0.00 0.00 0.00 71 1011.2
20260506093142 5 309 1.6 3.2 0.00 0.00 0.00 71 1011.0
20260506092640 5 304 1.6 3.2 0.00 0.00 0.00 70 1011.1
20260506092137 6 312 1.6 1.6 0.00 0.00 0.00 68 1010.8
20260506091635 6 346 1.6 1.6 0.00 0.00 0.00 67 1010.7
20260506091132 6 338 0.0 1.6 0.00 0.00 0.00 67 1010.7
20260506090630 6 341 0.0 3.2 0.00 0.00 0.00 66 1010.6
20260506090126 6 331 3.2 3.2 0.00 0.00 0.00 66 1010.6
20260506085623 6 321 3.2 3.2 0.00 0.00 0.00 67 1010.9